• In Hungary
  • List of Countries
  • For 7 days
  • Water Temperature
  • Satellite Maps
  • Weather Map
  • News
  • Weather Widgets
  • user-avatar
    Login

    Hourly Weather Premia de Mar

    Today, 13 November, Tuesday

    Time Temperature Precipitation Wind Pressure Humidity
    00:00 +16°C° 0 mm 3 mps 763 mmHg 83%
    01:00 +16°C° 0 mm 3 mps 763 mmHg 82%
    02:00 +16°C° 0 mm 3 mps 763 mmHg 81%
    03:00 +16°C° 0 mm 3 mps 763 mmHg 79%
    04:00 +16°C° 0 mm 3 mps 764 mmHg 78%
    05:00 +16°C° 0 mm 3 mps 764 mmHg 76%
    06:00 +14°C° 0 mm 5 mps 765 mmHg 74%
    07:00 +16°C° 0 mm 5 mps 765 mmHg 71%
    08:00 +17°C° 0 mm 5 mps 765 mmHg 68%
    09:00 +19°C° 0 mm 5 mps 766 mmHg 65%
    10:00 +20°C° 0 mm 5 mps 766 mmHg 62%
    11:00 +21°C° 0 mm 5 mps 766 mmHg 60%
    12:00 +22°C° 0 mm 6 mps 766 mmHg 57%
    13:00 +22°C° 0 mm 6 mps 766 mmHg 60%
    14:00 +22°C° 0 mm 6 mps 766 mmHg 62%
    15:00 +22°C° 0 mm 6 mps 766 mmHg 65%
    16:00 +21°C° 0 mm 5 mps 766 mmHg 71%
    17:00 +19°C° 0 mm 5 mps 766 mmHg 77%
    18:00 +17°C° 0 mm 5 mps 766 mmHg 83%
    19:00 +17°C° 0 mm 5 mps 766 mmHg 84%
    20:00 +17°C° 0 mm 4 mps 767 mmHg 85%
    21:00 +17°C° 0 mm 4 mps 767 mmHg 85%
    22:00 +17°C° 0 mm 4 mps 767 mmHg 85%
    23:00 +17°C° 0 mm 4 mps 767 mmHg 85%

    Tomorrow, 14 November, Wednesday

    Time Temperature Precipitation Wind Pressure Humidity
    00:00 +15°C° 0 mm 4 mps 767 mmHg 85%
    01:00 +15°C° 0 mm 4 mps 766 mmHg 86%
    02:00 +15°C° 0 mm 4 mps 766 mmHg 86%
    03:00 +15°C° 0 mm 4 mps 766 mmHg 86%
    04:00 +16°C° 0 mm 3 mps 766 mmHg 87%
    05:00 +16°C° 0 mm 3 mps 766 mmHg 87%
    06:00 +16°C° 0 mm 3 mps 766 mmHg 88%
    07:00 +17°C° 0 mm 3 mps 766 mmHg 84%
    08:00 +18°C° 0 mm 3 mps 766 mmHg 80%
    09:00 +19°C° 0 mm 3 mps 766 mmHg 76%
    10:00 +20°C° 0 mm 3 mps 766 mmHg 72%
    11:00 +21°C° 0 mm 3 mps 765 mmHg 67%
    12:00 +22°C° 0 mm 3 mps 765 mmHg 62%
    13:00 +21°C° 0 mm 3 mps 765 mmHg 64%
    14:00 +21°C° 0 mm 3 mps 764 mmHg 66%
    15:00 +21°C° 0 mm 3 mps 764 mmHg 68%
    16:00 +20°C° 0.1 mm 3 mps 764 mmHg 75%
    17:00 +19°C° 0.1 mm 3 mps 764 mmHg 82%
    18:00 +17°C° 0.1 mm 3 mps 764 mmHg 89%
    19:00 +17°C° 0.3 mm 3 mps 764 mmHg 89%
    20:00 +17°C° 0.3 mm 3 mps 764 mmHg 90%
    21:00 +17°C° 0.3 mm 3 mps 764 mmHg 90%
    22:00 +17°C° 0.4 mm 3 mps 764 mmHg 89%
    23:00 +17°C° 0.4 mm 3 mps 764 mmHg 89%

    Day after tomorrow, 15 November, Thursday

    Time Temperature Precipitation Wind Pressure Humidity
    00:00 +17°C° 0.4 mm 4 mps 764 mmHg 88%
    01:00 +15°C° 0.5 mm 4 mps 763 mmHg 88%
    02:00 +15°C° 0.5 mm 4 mps 763 mmHg 88%
    03:00 +15°C° 0.5 mm 4 mps 763 mmHg 88%
    04:00 +15°C° 0.4 mm 4 mps 763 mmHg 88%
    05:00 +15°C° 0.4 mm 4 mps 763 mmHg 88%
    06:00 +15°C° 0.4 mm 4 mps 762 mmHg 88%
    07:00 +17°C° 0.2 mm 4 mps 762 mmHg 86%
    08:00 +18°C° 0.2 mm 4 mps 763 mmHg 84%
    09:00 +18°C° 0.2 mm 4 mps 763 mmHg 83%
    10:00 +19°C° 0.4 mm 4 mps 763 mmHg 80%
    11:00 +20°C° 0.4 mm 4 mps 762 mmHg 77%
    12:00 +20°C° 0.4 mm 4 mps 762 mmHg 74%
    13:00 +20°C° 0.3 mm 4 mps 762 mmHg 74%
    14:00 +20°C° 0.3 mm 4 mps 762 mmHg 73%
    15:00 +20°C° 0.3 mm 4 mps 762 mmHg 73%
    16:00 +19°C° 0.1 mm 4 mps 762 mmHg 78%
    17:00 +18°C° 0.1 mm 4 mps 762 mmHg 82%
    18:00 +17°C° 0.1 mm 4 mps 763 mmHg 87%
    19:00 +17°C° 0.1 mm 4 mps 763 mmHg 88%
    20:00 +17°C° 0.1 mm 3 mps 763 mmHg 88%
    21:00 +17°C° 0.1 mm 3 mps 763 mmHg 89%
    22:00 +17°C° 0 mm 3 mps 763 mmHg 89%
    23:00 +16°C° 0 mm 3 mps 764 mmHg 89%

    16 November, Friday

    Time Temperature Precipitation Wind Pressure Humidity
    00:00 +15°C° 0 mm 4 mps 764 mmHg 89%
    01:00 +15°C° 0 mm 4 mps 764 mmHg 90%
    02:00 +15°C° 0 mm 4 mps 763 mmHg 90%
    03:00 +15°C° 0 mm 4 mps 763 mmHg 90%
    04:00 +14°C° 0 mm 4 mps 763 mmHg 90%
    05:00 +14°C° 0 mm 4 mps 764 mmHg 90%
    06:00 +14°C° 0 mm 4 mps 764 mmHg 90%
    07:00 +15°C° 0 mm 5 mps 764 mmHg 86%
    08:00 +16°C° 0 mm 5 mps 764 mmHg 83%
    09:00 +17°C° 0 mm 5 mps 764 mmHg 80%
    10:00 +17°C° 0 mm 5 mps 764 mmHg 76%
    11:00 +19°C° 0 mm 5 mps 764 mmHg 72%
    12:00 +20°C° 0 mm 6 mps 764 mmHg 68%
    13:00 +20°C° 0 mm 6 mps 764 mmHg 68%
    14:00 +20°C° 0 mm 6 mps 763 mmHg 67%
    15:00 +19°C° 0 mm 6 mps 763 mmHg 67%
    16:00 +17°C° 0 mm 6 mps 763 mmHg 72%
    17:00 +16°C° 0 mm 6 mps 763 mmHg 76%
    18:00 +15°C° 0 mm 6 mps 763 mmHg 81%
    19:00 +14°C° 0 mm 6 mps 763 mmHg 81%
    20:00 +14°C° 0 mm 6 mps 764 mmHg 81%
    21:00 +13°C° 0 mm 6 mps 764 mmHg 81%
    22:00 +13°C° 0 mm 6 mps 764 mmHg 79%
    23:00 +13°C° 0 mm 6 mps 764 mmHg 78%

    17 November, Saturday

    Time Temperature Precipitation Wind Pressure Humidity
    00:00 +11°C° 0 mm 6 mps 764 mmHg 76%
    01:00 +11°C° 0 mm 6 mps 763 mmHg 76%
    02:00 +12°C° 0 mm 5 mps 763 mmHg 77%
    03:00 +12°C° 0 mm 5 mps 763 mmHg 77%
    04:00 +12°C° 0 mm 5 mps 763 mmHg 78%
    05:00 +12°C° 0 mm 5 mps 763 mmHg 79%
    06:00 +12°C° 0 mm 5 mps 763 mmHg 80%
    07:00 +13°C° 0 mm 5 mps 763 mmHg 79%
    08:00 +14°C° 0 mm 5 mps 763 mmHg 78%
    09:00 +15°C° 0 mm 5 mps 763 mmHg 77%
    10:00 +15°C° 0 mm 6 mps 763 mmHg 74%
    11:00 +16°C° 0 mm 6 mps 763 mmHg 71%
    12:00 +16°C° 0 mm 6 mps 762 mmHg 68%
    13:00 +16°C° 0 mm 6 mps 762 mmHg 66%
    14:00 +16°C° 0 mm 6 mps 762 mmHg 64%
    15:00 +16°C° 0 mm 6 mps 762 mmHg 63%
    16:00 +15°C° 0 mm 6 mps 762 mmHg 67%
    17:00 +14°C° 0 mm 6 mps 762 mmHg 72%
    18:00 +11°C° 0 mm 6 mps 762 mmHg 77%
    19:00 +12°C° 0.1 mm 5 mps 762 mmHg 78%
    20:00 +12°C° 0.1 mm 5 mps 762 mmHg 80%
    21:00 +12°C° 0.1 mm 5 mps 762 mmHg 82%
    22:00 +12°C° 0.1 mm 5 mps 762 mmHg 82%
    23:00 +11°C° 0.1 mm 6 mps 762 mmHg 82%

    18 November, Sunday

    Time Temperature Precipitation Wind Pressure Humidity
    00:00 +11°C° 0.1 mm 6 mps 762 mmHg 83%
    01:00 +11°C° 0.1 mm 6 mps 761 mmHg 82%
    02:00 +11°C° 0.1 mm 6 mps 761 mmHg 82%
    03:00 +11°C° 0.1 mm 6 mps 761 mmHg 81%
    04:00 +10°C° 0.1 mm 6 mps 761 mmHg 82%
    05:00 +10°C° 0.1 mm 6 mps 761 mmHg 82%
    06:00 +10°C° 0.1 mm 6 mps 761 mmHg 83%
    07:00 +11°C° 0.1 mm 6 mps 761 mmHg 80%
    08:00 +11°C° 0.1 mm 6 mps 761 mmHg 78%
    09:00 +12°C° 0.1 mm 7 mps 761 mmHg 76%
    10:00 +12°C° 0.1 mm 7 mps 761 mmHg 73%
    11:00 +14°C° 0.1 mm 7 mps 761 mmHg 70%
    12:00 +14°C° 0.1 mm 7 mps 760 mmHg 67%
    13:00 +14°C° 0.2 mm 7 mps 760 mmHg 68%
    14:00 +14°C° 0.2 mm 7 mps 760 mmHg 69%
    15:00 +13°C° 0.2 mm 6 mps 759 mmHg 70%
    16:00 +13°C° 0.1 mm 6 mps 759 mmHg 74%
    17:00 +11°C° 0.1 mm 6 mps 759 mmHg 77%
    18:00 +10°C° 0.1 mm 6 mps 759 mmHg 81%
    19:00 +10°C° 0.1 mm 6 mps 759 mmHg 82%
    20:00 +9°C° 0.1 mm 6 mps 759 mmHg 83%
    21:00 +9°C° 0.1 mm 6 mps 759 mmHg 84%
    22:00 +9°C° 0 mm 6 mps 759 mmHg 83%
    23:00 +8°C° 0 mm 6 mps 759 mmHg 83%
    Show more